Location: Arlington
(40.6323°N, 74.1651°W)
Time: 02:56:17
(UTC+00:00)

Lacrosse 4 Rocket - Pass Details

Date: 22 November 2019
Orbit: 543 x 616 km, 68.0° (Epoch: 08 December)

Event Time Altitude Azimuth Distance (km) Brightness Sun altitude
Rises 22:01:19 0° 233° (SW) 2,710 6.7 -5.5°
Reaches altitude 10° 22:03:45 10° 245° (WSW) 1,813 5.8 -6.0°
Maximum altitude 22:07:15 28° 305° (NW) 1,050 3.2 -6.6°
Drops below altitude 10° 22:10:45 10° 6° (N) 1,815 3.7 -7.2°
Sets 22:13:12 0° 18° (NNE) 2,713 4.5 -7.7°
